| time (UTC) | temp C | wind direction | speed KPH | gust KPH | rain 1hr cm | rain 24hr cm | rain mn cm | humidity % | barometer mb |
| 20260507224733 | 14 | 271 | 9.7 | 11.3 | 0.00 | 0.00 | 0.00 | 21 | 998.1 |
| 20260507224230 | 14 | 276 | 8.0 | 14.5 | 0.00 | 0.00 | 0.00 | 21 | 998.1 |
| 20260507223726 | 14 | 293 | 8.0 | 12.9 | 0.00 | 0.00 | 0.00 | 21 | 997.4 |
| 20260507223223 | 14 | 274 | 9.7 | 11.3 | 0.00 | 0.00 | 0.00 | 21 | 997.4 |
| 20260507222719 | 14 | 279 | 6.4 | 12.9 | 0.00 | 0.00 | 0.00 | 21 | 997.4 |
| 20260507222216 | 14 | 292 | 6.4 | 11.3 | 0.00 | 0.00 | 0.00 | 21 | 997.7 |
| 20260507221713 | 13 | 280 | 8.0 | 11.3 | 0.00 | 0.00 | 0.00 | 18 | 997.7 |
| 20260507221209 | 13 | 279 | 6.4 | 11.3 | 0.00 | 0.00 | 0.00 | 19 | 997.7 |
| 20260507220706 | 14 | 250 | 6.4 | 11.3 | 0.00 | 0.00 | 0.00 | 21 | 998.1 |
| 20260507220204 | 14 | 283 | 6.4 | 11.3 | 0.00 | 0.00 | 0.00 | 21 | 997.7 |
| 20260507215700 | 14 | 279 | 6.4 | 11.3 | 0.00 | 0.00 | 0.00 | 21 | 998.1 |
| 20260507215157 | 14 | 271 | 8.0 | 12.9 | 0.00 | 0.00 | 0.00 | 21 | 998.1 |
| 20260507214655 | 14 | 267 | 8.0 | 12.9 | 0.00 | 0.00 | 0.00 | 21 | 998.1 |
| 20260507214151 | 14 | 266 | 11.3 | 14.5 | 0.00 | 0.00 | 0.00 | 21 | 997.7 |
| 20260507213647 | 14 | 275 | 9.7 | 14.5 | 0.00 | 0.00 | 0.00 | 21 | 997.7 |
| 20260507213144 | 14 | 292 | 8.0 | 11.3 | 0.00 | 0.00 | 0.00 | 21 | 997.7 |
| 20260507212640 | 13 | 280 | 8.0 | 11.3 | 0.00 | 0.00 | 0.00 | 18 | 998.1 |
| 20260507212137 | 13 | 286 | 9.7 | 12.9 | 0.00 | 0.00 | 0.00 | 22 | 997.7 |
| 20260507211634 | 14 | 288 | 11.3 | 14.5 | 0.00 | 0.00 | 0.00 | 21 | 997.7 |
| 20260507211129 | 14 | 284 | 9.7 | 14.5 | 0.00 | 0.00 | 0.00 | 21 | 997.7 |
| 20260507210628 | 13 | 292 | 6.4 | 9.7 | 0.00 | 0.00 | 0.00 | 18 | 997.7 |
| 20260507210124 | 13 | 291 | 9.7 | 12.9 | 0.00 | 0.00 | 0.00 | 19 | 998.1 |
| 20260507205621 | 13 | 272 | 8.0 | 14.5 | 0.00 | 0.00 | 0.00 | 19 | 997.4 |
| 20260507205117 | 13 | 275 | 8.0 | 11.3 | 0.00 | 0.00 | 0.00 | 19 | 997.7 |
| 20260507204613 | 13 | 277 | 6.4 | 9.7 | 0.00 | 0.00 | 0.00 | 19 | 997.7 |
| 20260507204111 | 13 | 264 | 11.3 | 16.1 | 0.00 | 0.00 | 0.00 | 19 | 997.4 |
| 20260507203609 | 13 | 296 | 9.7 | 14.5 | 0.00 | 0.00 | 0.00 | 19 | 997.4 |
| 20260507203106 | 13 | 282 | 11.3 | 14.5 | 0.00 | 0.00 | 0.00 | 21 | 997.4 |
| 20260507202601 | 13 | 324 | 6.4 | 11.3 | 0.00 | 0.00 | 0.00 | 22 | 997.4 |
| 20260507202058 | 14 | 270 | 9.7 | 12.9 | 0.00 | 0.00 | 0.00 | 21 | 997.4 |
| 20260507201553 | 13 | 275 | 11.3 | 12.9 | 0.00 | 0.00 | 0.00 | 22 | 997.7 |
| 20260507201050 | 13 | 278 | 9.7 | 14.5 | 0.00 | 0.00 | 0.00 | 18 | 997.4 |
| 20260507200545 | 13 | 262 | 14.5 | 16.1 | 0.00 | 0.00 | 0.00 | 19 | 997.7 |
| 20260507200042 | 13 | 280 | 9.7 | 12.9 | 0.00 | 0.00 | 0.00 | 19 | 997.7 |
| 20260507195539 | 13 | 249 | 14.5 | 16.1 | 0.00 | 0.00 | 0.00 | 22 | 997.7 |
| 20260507195037 | 13 | 293 | 12.9 | 14.5 | 0.00 | 0.00 | 0.00 | 22 | 997.7 |
| 20260507194533 | 13 | 293 | 12.9 | 12.9 | 0.00 | 0.00 | 0.00 | 22 | 997.7 |
| 20260507194029 | 13 | 273 | 12.9 | 17.7 | 0.00 | 0.00 | 0.00 | 22 | 997.7 |
| 20260507193526 | 13 | 277 | 8.0 | 9.7 | 0.00 | 0.00 | 0.00 | 22 | 997.7 |
| 20260507193023 | 13 | 280 | 6.4 | 12.9 | 0.00 | 0.00 | 0.00 | 20 | 997.7 |
| 20260507192519 | 13 | 290 | 8.0 | 16.1 | 0.00 | 0.00 | 0.00 | 22 | 998.1 |
| 20260507192016 | 13 | 268 | 11.3 | 12.9 | 0.00 | 0.00 | 0.00 | 22 | 997.7 |
| 20260507191511 | 13 | 285 | 9.7 | 14.5 | 0.00 | 0.00 | 0.00 | 19 | 997.7 |
| 20260507191009 | 13 | 269 | 9.7 | 12.9 | 0.00 | 0.00 | 0.00 | 20 | 997.7 |
| 20260507190506 | 13 | 283 | 9.7 | 14.5 | 0.00 | 0.00 | 0.00 | 20 | 998.1 |
| 20260507190006 | 13 | 290 | 8.0 | 12.9 | 0.00 | 0.00 | 0.00 | 19 | 998.1 |
| 20260507185502 | 13 | 274 | 6.4 | 14.5 | 0.00 | 0.00 | 0.00 | 19 | 998.1 |
| 20260507184959 | 13 | 286 | 6.4 | 12.9 | 0.00 | 0.00 | 0.00 | 20 | 998.1 |
| 20260507184457 | 13 | 283 | 6.4 | 14.5 | 0.00 | 0.00 | 0.00 | 20 | 998.1 |
| 20260507183955 | 13 | 290 | 4.8 | 11.3 | 0.00 | 0.00 | 0.00 | 20 | 998.1 |
| 20260507183450 | 13 | 291 | 8.0 | 17.7 | 0.00 | 0.00 | 0.00 | 19 | 998.1 |
| 20260507182948 | 13 | 279 | 11.3 | 14.5 | 0.00 | 0.00 | 0.00 | 20 | 998.1 |
| 20260507182444 | 13 | 264 | 9.7 | 12.9 | 0.00 | 0.00 | 0.00 | 20 | 998.1 |
| 20260507181940 | 13 | 265 | 8.0 | 14.5 | 0.00 | 0.00 | 0.00 | 19 | 998.1 |
| 20260507181436 | 13 | 250 | 12.9 | 14.5 | 0.00 | 0.00 | 0.00 | 20 | 998.1 |
| 20260507180933 | 13 | 297 | 8.0 | 14.5 | 0.00 | 0.00 | 0.00 | 20 | 998.1 |
| 20260507180430 | 12 | 287 | 4.8 | 11.3 | 0.00 | 0.00 | 0.00 | 19 | 998.1 |
| 20260507175926 | 12 | 266 | 8.0 | 14.5 | 0.00 | 0.00 | 0.00 | 20 | 998.1 |
| 20260507175423 | 12 | 268 | 8.0 | 12.9 | 0.00 | 0.00 | 0.00 | 17 | 998.4 |
| 20260507174921 | 12 | 293 | 8.0 | 12.9 | 0.00 | 0.00 | 0.00 | 17 | 998.1 |
| 20260507174418 | 12 | 278 | 8.0 | 14.5 | 0.00 | 0.00 | 0.00 | 17 | 998.1 |
| 20260507173915 | 12 | 260 | 9.7 | 12.9 | 0.00 | 0.00 | 0.00 | 17 | 998.1 |
| 20260507173412 | 12 | 284 | 9.7 | 14.5 | 0.00 | 0.00 | 0.00 | 18 | 998.1 |
| 20260507172908 | 12 | 284 | 9.7 | 12.9 | 0.00 | 0.00 | 0.00 | 18 | 998.1 |
| 20260507172405 | 12 | 272 | 6.4 | 16.1 | 0.00 | 0.00 | 0.00 | 18 | 998.1 |
| 20260507171901 | 12 | 277 | 9.7 | 17.7 | 0.00 | 0.00 | 0.00 | 18 | 998.7 |
| 20260507171358 | 12 | 268 | 9.7 | 14.5 | 0.00 | 0.00 | 0.00 | 18 | 998.4 |
| 20260507170855 | 12 | 328 | 9.7 | 12.9 | 0.00 | 0.00 | 0.00 | 18 | 998.7 |
| 20260507170351 | 12 | 279 | 8.0 | 12.9 | 0.00 | 0.00 | 0.00 | 18 | 998.4 |
| 20260507165848 | 12 | 286 | 6.4 | 9.7 | 0.00 | 0.00 | 0.00 | 18 | 998.4 |
| 20260507165343 | 12 | 277 | 11.3 | 12.9 | 0.00 | 0.00 | 0.00 | 18 | 998.7 |
| 20260507164840 | 12 | 277 | 8.0 | 9.7 | 0.00 | 0.00 | 0.00 | 18 | 998.7 |
| 20260507164337 | 11 | 286 | 6.4 | 9.7 | 0.00 | 0.00 | 0.00 | 19 | 998.7 |
| 20260507163834 | 11 | 258 | 9.7 | 11.3 | 0.00 | 0.00 | 0.00 | 19 | 998.7 |
| 20260507163331 | 11 | 295 | 9.7 | 14.5 | 0.00 | 0.00 | 0.00 | 19 | 999.1 |
| 20260507162828 | 11 | 286 | 6.4 | 12.9 | 0.00 | 0.00 | 0.00 | 19 | 999.1 |
| 20260507162323 | 11 | 293 | 8.0 | 11.3 | 0.00 | 0.00 | 0.00 | 20 | 999.1 |
| 20260507161821 | 11 | 288 | 9.7 | 16.1 | 0.00 | 0.00 | 0.00 | 20 | 999.1 |
| 20260507161317 | 11 | 296 | 6.4 | 11.3 | 0.00 | 0.00 | 0.00 | 20 | 999.1 |
| 20260507160814 | 11 | 324 | 6.4 | 11.3 | 0.00 | 0.00 | 0.00 | 19 | 999.1 |
| 20260507160309 | 11 | 273 | 6.4 | 11.3 | 0.00 | 0.00 | 0.00 | 19 | 999.1 |
| 20260507155806 | 11 | 293 | 8.0 | 11.3 | 0.00 | 0.00 | 0.00 | 19 | 999.1 |
| 20260507155306 | 11 | 282 | 9.7 | 11.3 | 0.00 | 0.00 | 0.00 | 19 | 999.4 |
| 20260507154759 | 11 | 284 | 9.7 | 11.3 | 0.00 | 0.00 | 0.00 | 19 | 999.4 |
| 20260507154256 | 11 | 279 | 11.3 | 16.1 | 0.00 | 0.00 | 0.00 | 19 | 999.1 |
| 20260507153752 | 12 | 271 | 6.4 | 12.9 | 0.00 | 0.00 | 0.00 | 18 | 999.4 |
| 20260507153249 | 12 | 270 | 14.5 | 14.5 | 0.00 | 0.00 | 0.00 | 18 | 999.4 |
| 20260507152746 | 11 | 287 | 11.3 | 12.9 | 0.00 | 0.00 | 0.00 | 19 | 999.4 |
| 20260507152242 | 11 | 264 | 6.4 | 14.5 | 0.00 | 0.00 | 0.00 | 19 | 999.4 |
| 20260507151738 | 11 | 292 | 8.0 | 11.3 | 0.00 | 0.00 | 0.00 | 20 | 999.4 |
| 20260507151234 | 12 | 283 | 6.4 | 12.9 | 0.00 | 0.00 | 0.00 | 18 | 999.4 |
| 20260507150731 | 11 | 261 | 8.0 | 11.3 | 0.00 | 0.00 | 0.00 | 20 | 999.4 |
| 20260507150228 | 11 | 284 | 6.4 | 11.3 | 0.00 | 0.00 | 0.00 | 20 | 999.7 |
| 20260507145724 | 11 | 278 | 8.0 | 12.9 | 0.00 | 0.00 | 0.00 | 20 | 999.4 |
| 20260507145221 | 11 | 291 | 6.4 | 12.9 | 0.00 | 0.00 | 0.00 | 20 | 999.7 |
| 20260507144718 | 11 | 289 | 6.4 | 14.5 | 0.00 | 0.00 | 0.00 | 20 | 999.4 |
| 20260507144216 | 11 | 282 | 8.0 | 12.9 | 0.00 | 0.00 | 0.00 | 19 | 999.4 |
| 20260507143712 | 11 | 267 | 9.7 | 12.9 | 0.00 | 0.00 | 0.00 | 20 | 999.4 |
| 20260507143209 | 11 | 287 | 6.4 | 11.3 | 0.00 | 0.00 | 0.00 | 21 | 999.1 |
| 20260507142705 | 11 | 263 | 9.7 | 11.3 | 0.00 | 0.00 | 0.00 | 20 | 999.4 |
| 20260507142202 | 11 | 295 | 4.8 | 9.7 | 0.00 | 0.00 | 0.00 | 20 | 999.4 |
| 20260507141658 | 11 | 285 | 6.4 | 11.3 | 0.00 | 0.00 | 0.00 | 19 | 999.7 |
| 20260507141155 | 11 | 280 | 8.0 | 12.9 | 0.00 | 0.00 | 0.00 | 20 | 999.1 |
| 20260507140651 | 11 | 268 | 8.0 | 14.5 | 0.00 | 0.00 | 0.00 | 19 | 999.4 |
| 20260507140149 | 11 | 280 | 4.8 | 11.3 | 0.00 | 0.00 | 0.00 | 20 | 999.4 |
| 20260507135646 | 11 | 283 | 6.4 | 11.3 | 0.00 | 0.00 | 0.00 | 20 | 999.1 |
| 20260507135143 | 11 | 295 | 3.2 | 4.8 | 0.00 | 0.00 | 0.00 | 20 | 999.4 |
| 20260507134639 | 11 | 267 | 4.8 | 9.7 | 0.00 | 0.00 | 0.00 | 20 | 999.4 |
| 20260507134136 | 11 | 260 | 3.2 | 6.4 | 0.00 | 0.00 | 0.00 | 20 | 999.4 |
| 20260507133632 | 10 | 271 | 6.4 | 6.4 | 0.00 | 0.00 | 0.00 | 21 | 999.4 |
| 20260507133129 | 10 | 263 | 6.4 | 6.4 | 0.00 | 0.00 | 0.00 | 21 | 999.4 |
| 20260507132626 | 10 | 288 | 6.4 | 6.4 | 0.00 | 0.00 | 0.00 | 21 | 999.7 |
| 20260507132122 | 10 | 281 | 6.4 | 9.7 | 0.00 | 0.00 | 0.00 | 22 | 999.7 |
| 20260507131619 | 10 | 283 | 6.4 | 6.4 | 0.00 | 0.00 | 0.00 | 22 | 999.7 |
| 20260507131117 | 10 | 283 | 4.8 | 9.7 | 0.00 | 0.00 | 0.00 | 21 | 999.7 |
| 20260507130613 | 10 | 265 | 4.8 | 6.4 | 0.00 | 0.00 | 0.00 | 22 | 999.7 |
| 20260507130111 | 10 | 274 | 6.4 | 9.7 | 0.00 | 0.00 | 0.00 | 23 | 1000.1 |
| 20260507125610 | 10 | 288 | 3.2 | 4.8 | 0.00 | 0.00 | 0.00 | 22 | 999.7 |
| 20260507125107 | 10 | 282 | 4.8 | 6.4 | 0.00 | 0.00 | 0.00 | 23 | 999.7 |
| 20260507124603 | 10 | 289 | 3.2 | 4.8 | 0.00 | 0.00 | 0.00 | 22 | 999.7 |
| 20260507124101 | 10 | 297 | 3.2 | 4.8 | 0.00 | 0.00 | 0.00 | 22 | 999.7 |
| 20260507123559 | 10 | 287 | 4.8 | 9.7 | 0.00 | 0.00 | 0.00 | 23 | 999.7 |
| 20260507123055 | 10 | 290 | 6.4 | 6.4 | 0.00 | 0.00 | 0.00 | 24 | 1000.1 |
| 20260507122551 | 10 | 286 | 4.8 | 6.4 | 0.00 | 0.00 | 0.00 | 26 | 999.7 |
| 20260507122047 | 10 | 283 | 4.8 | 6.4 | 0.00 | 0.00 | 0.00 | 27 | 999.7 |
| 20260507121543 | 10 | 292 | 3.2 | 6.4 | 0.00 | 0.00 | 0.00 | 26 | 999.7 |
| 20260507121039 | 10 | 280 | 8.0 | 11.3 | 0.00 | 0.00 | 0.00 | 27 | 999.7 |
| 20260507120535 | 10 | 296 | 4.8 | 6.4 | 0.00 | 0.00 | 0.00 | 27 | 999.7 |
| 20260507120032 | 9 | 280 | 4.8 | 6.4 | 0.00 | 0.00 | 0.00 | 30 | 999.7 |
| 20260507115528 | 9 | 275 | 3.2 | 9.7 | 0.00 | 0.00 | 0.00 | 29 | 999.7 |
| 20260507115024 | 9 | 284 | 6.4 | 9.7 | 0.00 | 0.00 | 0.00 | 28 | 999.7 |
| 20260507114520 | 8 | 291 | 6.4 | 9.7 | 0.00 | 0.00 | 0.00 | 31 | 999.7 |
| 20260507114018 | 8 | 283 | 6.4 | 6.4 | 0.00 | 0.00 | 0.00 | 32 | 999.7 |
| 20260507113515 | 8 | 289 | 4.8 | 4.8 | 0.00 | 0.00 | 0.00 | 32 | 999.7 |
| 20260507113012 | 8 | 285 | 3.2 | 6.4 | 0.00 | 0.00 | 0.00 | 33 | 999.7 |
| 20260507112510 | 8 | 297 | 3.2 | 3.2 | 0.00 | 0.00 | 0.00 | 34 | 999.7 |
| 20260507112006 | 7 | 288 | 0.0 | 1.6 | 0.00 | 0.00 | 0.00 | 33 | 999.7 |
| 20260507111504 | 7 | 288 | 1.6 | 3.2 | 0.00 | 0.00 | 0.00 | 34 | 999.4 |
| 20260507110959 | 7 | 291 | 0.0 | 3.2 | 0.00 | 0.00 | 0.00 | 34 | 999.7 |
| 20260507110456 | 7 | 290 | 0.0 | 0.0 | 0.00 | 0.00 | 0.00 | 34 | 999.4 |
| 20260507105952 | 7 | 273 | 1.6 | 3.2 | 0.00 | 0.00 | 0.00 | 34 | 999.7 |
| 20260507105449 | 7 | 291 | 0.0 | 0.0 | 0.00 | 0.00 | 0.00 | 35 | 999.7 |
| 20260507104946 | 7 | 286 | 1.6 | 3.2 | 0.00 | 0.00 | 0.00 | 36 | 1000.1 |
| 20260507104443 | 7 | 293 | 1.6 | 3.2 | 0.00 | 0.00 | 0.00 | 34 | 999.7 |
| 20260507103938 | 8 | 293 | 3.2 | 4.8 | 0.00 | 0.00 | 0.00 | 36 | 999.7 |
| 20260507103436 | 8 | 288 | 3.2 | 4.8 | 0.00 | 0.00 | 0.00 | 34 | 999.4 |
| 20260507102932 | 7 | 295 | 1.6 | 3.2 | 0.00 | 0.00 | 0.00 | 35 | 999.7 |
| 20260507102429 | 7 | 290 | 1.6 | 3.2 | 0.00 | 0.00 | 0.00 | 34 | 1000.1 |
| 20260507101925 | 8 | 288 | 1.6 | 4.8 | 0.00 | 0.00 | 0.00 | 36 | 999.7 |
| 20260507101420 | 8 | 294 | 3.2 | 3.2 | 0.00 | 0.00 | 0.00 | 37 | 999.7 |
| 20260507100917 | 8 | 289 | 3.2 | 4.8 | 0.00 | 0.00 | 0.00 | 37 | 999.7 |
| 20260507100415 | 8 | 292 | 4.8 | 4.8 | 0.00 | 0.00 | 0.00 | 37 | 999.7 |
| 20260507095913 | 8 | 284 | 3.2 | 6.4 | 0.00 | 0.00 | 0.00 | 36 | 999.7 |
| 20260507095409 | 8 | 296 | 3.2 | 4.8 | 0.00 | 0.00 | 0.00 | 37 | 999.4 |
| 20260507094907 | 8 | 287 | 3.2 | 4.8 | 0.00 | 0.00 | 0.00 | 37 | 1000.1 |
| 20260507094403 | 8 | 338 | 1.6 | 3.2 | 0.00 | 0.00 | 0.00 | 36 | 999.7 |
| 20260507093900 | 8 | 294 | 1.6 | 4.8 | 0.00 | 0.00 | 0.00 | 37 | 999.7 |
| 20260507093358 | 8 | 282 | 3.2 | 4.8 | 0.00 | 0.00 | 0.00 | 36 | 999.7 |
| 20260507092856 | 8 | 276 | 3.2 | 4.8 | 0.00 | 0.00 | 0.00 | 37 | 999.7 |
| 20260507092352 | 8 | 280 | 1.6 | 3.2 | 0.00 | 0.00 | 0.00 | 36 | 999.7 |
| 20260507091849 | 8 | 297 | 3.2 | 4.8 | 0.00 | 0.00 | 0.00 | 36 | 999.7 |
| 20260507091345 | 8 | 292 | 1.6 | 4.8 | 0.00 | 0.00 | 0.00 | 36 | 999.4 |
| 20260507090841 | 8 | 291 | 3.2 | 3.2 | 0.00 | 0.00 | 0.00 | 36 | 999.1 |
| 20260507090337 | 8 | 295 | 1.6 | 4.8 | 0.00 | 0.00 | 0.00 | 36 | 999.1 |
| 20260507085834 | 8 | 297 | 3.2 | 4.8 | 0.00 | 0.00 | 0.00 | 37 | 999.1 |
| 20260507085331 | 8 | 296 | 1.6 | 4.8 | 0.00 | 0.00 | 0.00 | 36 | 999.1 |
| 20260507084829 | 8 | 329 | 1.6 | 6.4 | 0.00 | 0.00 | 0.00 | 37 | 999.1 |
| 20260507084325 | 8 | 332 | 3.2 | 4.8 | 0.00 | 0.00 | 0.00 | 36 | 999.7 |
| 20260507083822 | 8 | 331 | 3.2 | 4.8 | 0.00 | 0.00 | 0.00 | 36 | 999.4 |
| 20260507083319 | 8 | 296 | 3.2 | 4.8 | 0.00 | 0.00 | 0.00 | 36 | 999.4 |
| 20260507082815 | 8 | 328 | 3.2 | 4.8 | 0.00 | 0.00 | 0.00 | 37 | 999.1 |
| 20260507082310 | 8 | 290 | 4.8 | 6.4 | 0.00 | 0.00 | 0.00 | 36 | 999.1 |
| 20260507081808 | 8 | 275 | 6.4 | 9.7 | 0.00 | 0.00 | 0.00 | 35 | 999.4 |
| 20260507081304 | 8 | 289 | 3.2 | 4.8 | 0.00 | 0.00 | 0.00 | 36 | 999.4 |
| 20260507080801 | 8 | 294 | 3.2 | 6.4 | 0.00 | 0.00 | 0.00 | 36 | 999.4 |
| 20260507080257 | 8 | 296 | 4.8 | 6.4 | 0.00 | 0.00 | 0.00 | 35 | 999.1 |
| 20260507075752 | 8 | 297 | 3.2 | 4.8 | 0.00 | 0.00 | 0.00 | 35 | 998.7 |
| 20260507075248 | 8 | 344 | 3.2 | 4.8 | 0.00 | 0.00 | 0.00 | 35 | 999.1 |
| 20260507074745 | 8 | 291 | 3.2 | 4.8 | 0.00 | 0.00 | 0.00 | 35 | 999.1 |
| 20260507074243 | 8 | 276 | 6.4 | 6.4 | 0.00 | 0.00 | 0.00 | 35 | 999.1 |
| 20260507073739 | 8 | 293 | 4.8 | 6.4 | 0.00 | 0.00 | 0.00 | 34 | 999.1 |
| 20260507073236 | 8 | 290 | 4.8 | 6.4 | 0.00 | 0.00 | 0.00 | 35 | 998.4 |
| 20260507072734 | 8 | 280 | 6.4 | 9.7 | 0.00 | 0.00 | 0.00 | 34 | 998.7 |
| 20260507072231 | 8 | 281 | 9.7 | 11.3 | 0.00 | 0.00 | 0.00 | 34 | 998.4 |
| 20260507071729 | 8 | 286 | 4.8 | 9.7 | 0.00 | 0.00 | 0.00 | 34 | 998.4 |
| 20260507071225 | 8 | 287 | 3.2 | 9.7 | 0.00 | 0.00 | 0.00 | 34 | 998.4 |
| 20260507070722 | 8 | 274 | 3.2 | 6.4 | 0.00 | 0.00 | 0.00 | 34 | 998.7 |
| 20260507070219 | 8 | 293 | 4.8 | 4.8 | 0.00 | 0.00 | 0.00 | 33 | 998.7 |
| 20260507065715 | 8 | 296 | 3.2 | 9.7 | 0.00 | 0.00 | 0.00 | 33 | 998.7 |
| 20260507065212 | 8 | 297 | 3.2 | 9.7 | 0.00 | 0.00 | 0.00 | 33 | 999.1 |
| 20260507064709 | 9 | 283 | 3.2 | 6.4 | 0.00 | 0.00 | 0.00 | 33 | 998.4 |
| 20260507064209 | 8 | 334 | 3.2 | 4.8 | 0.00 | 0.00 | 0.00 | 33 | 999.1 |
| 20260507063705 | 8 | 293 | 0.0 | 3.2 | 0.00 | 0.00 | 0.00 | 33 | 998.7 |
| 20260507063202 | 8 | 276 | 1.6 | 1.6 | 0.00 | 0.00 | 0.00 | 34 | 998.4 |
| 20260507062659 | 9 | 297 | 3.2 | 4.8 | 0.00 | 0.00 | 0.00 | 33 | 998.1 |
| 20260507062156 | 9 | 292 | 0.0 | 1.6 | 0.00 | 0.00 | 0.00 | 34 | 998.1 |
| 20260507061654 | 9 | 281 | 3.2 | 4.8 | 0.00 | 0.00 | 0.00 | 34 | 998.7 |
| 20260507061152 | 9 | 288 | 3.2 | 4.8 | 0.00 | 0.00 | 0.00 | 36 | 998.7 |
| 20260507060650 | 8 | 287 | 0.0 | 3.2 | 0.00 | 0.00 | 0.00 | 36 | 998.4 |
| 20260507060146 | 9 | 282 | 0.0 | 1.6 | 0.00 | 0.00 | 0.00 | 37 | 998.4 |
| 20260507055642 | 9 | 292 | 0.0 | 1.6 | 0.00 | 0.00 | 0.00 | 35 | 998.1 |
| 20260507055138 | 9 | 293 | 0.0 | 0.0 | 0.00 | 0.00 | 0.00 | 36 | 998.1 |
| 20260507054634 | 9 | 286 | 0.0 | 1.6 | 0.00 | 0.00 | 0.00 | 35 | 998.1 |
| 20260507054131 | 9 | 285 | 3.2 | 6.4 | 0.00 | 0.00 | 0.00 | 34 | 998.1 |
| 20260507053629 | 9 | 274 | 4.8 | 4.8 | 0.00 | 0.00 | 0.00 | 35 | 998.1 |
| 20260507053127 | 10 | 262 | 3.2 | 4.8 | 0.00 | 0.00 | 0.00 | 35 | 998.1 |
| 20260507052625 | 10 | 276 | 3.2 | 4.8 | 0.00 | 0.00 | 0.00 | 35 | 998.1 |
| 20260507052121 | 10 | 293 | 4.8 | 9.7 | 0.00 | 0.00 | 0.00 | 35 | 998.1 |
| 20260507051619 | 10 | 332 | 4.8 | 4.8 | 0.00 | 0.00 | 0.00 | 35 | 998.1 |
| 20260507051115 | 10 | 345 | 3.2 | 3.2 | 0.00 | 0.00 | 0.00 | 35 | 998.1 |
| 20260507050612 | 10 | 331 | 4.8 | 4.8 | 0.00 | 0.00 | 0.00 | 35 | 997.4 |
| 20260507050109 | 10 | 340 | 3.2 | 4.8 | 0.00 | 0.00 | 0.00 | 34 | 998.1 |
| 20260507045605 | 10 | 288 | 1.6 | 4.8 | 0.00 | 0.00 | 0.00 | 35 | 998.4 |
| 20260507045102 | 10 | 268 | 3.2 | 6.4 | 0.00 | 0.00 | 0.00 | 34 | 998.4 |
| 20260507044559 | 10 | 292 | 6.4 | 9.7 | 0.00 | 0.00 | 0.00 | 34 | 998.1 |
| 20260507044056 | 10 | 286 | 6.4 | 6.4 | 0.00 | 0.00 | 0.00 | 35 | 998.1 |
| 20260507043551 | 10 | 272 | 6.4 | 6.4 | 0.00 | 0.00 | 0.00 | 35 | 998.1 |
| 20260507043049 | 10 | 280 | 4.8 | 11.3 | 0.00 | 0.00 | 0.00 | 35 | 997.7 |
| 20260507042545 | 10 | 278 | 9.7 | 11.3 | 0.00 | 0.00 | 0.00 | 35 | 997.7 |
| 20260507042041 | 10 | 289 | 8.0 | 11.3 | 0.00 | 0.00 | 0.00 | 34 | 997.7 |
| 20260507041538 | 10 | 291 | 6.4 | 11.3 | 0.00 | 0.00 | 0.00 | 35 | 997.7 |
| 20260507041035 | 10 | 276 | 6.4 | 11.3 | 0.00 | 0.00 | 0.00 | 36 | 997.7 |
| 20260507040531 | 10 | 273 | 6.4 | 12.9 | 0.00 | 0.00 | 0.00 | 37 | 997.7 |
| 20260507040027 | 10 | 258 | 9.7 | 11.3 | 0.00 | 0.36 | 0.36 | 40 | 997.7 |
| 20260507035523 | 10 | 265 | 8.0 | 9.7 | 0.00 | 0.36 | 0.36 | 39 | 997.7 |
| 20260507035020 | 11 | 263 | 11.3 | 14.5 | 0.00 | 0.36 | 0.36 | 38 | 997.7 |
| 20260507034517 | 11 | 279 | 9.7 | 11.3 | 0.13 | 0.36 | 0.36 | 37 | 997.7 |
| 20260507034015 | 11 | 289 | 6.4 | 9.7 | 0.30 | 0.36 | 0.36 | 36 | 997.7 |
| 20260507033513 | 11 | 282 | 3.2 | 11.3 | 0.18 | 0.33 | 0.33 | 36 | 997.7 |
| 20260507033010 | 11 | 273 | 6.4 | 11.3 | 0.00 | 0.30 | 0.30 | 35 | 998.1 |
| 20260507032506 | 12 | 281 | 8.0 | 14.5 | 0.00 | 0.30 | 0.30 | 32 | 998.1 |
| 20260507032003 | 12 | 270 | 9.7 | 14.5 | 0.00 | 0.30 | 0.30 | 33 | 998.1 |
| 20260507031459 | 12 | 285 | 4.8 | 9.7 | 0.00 | 0.30 | 0.30 | 34 | 997.7 |
| 20260507030956 | 12 | 296 | 3.2 | 9.7 | 0.00 | 0.30 | 0.30 | 34 | 998.1 |
| 20260507030453 | 12 | 267 | 8.0 | 12.9 | 0.00 | 0.30 | 0.30 | 33 | 997.7 |
| 20260507025950 | 12 | 274 | 8.0 | 11.3 | 0.00 | 0.30 | 0.30 | 35 | 997.4 |
| 20260507025447 | 12 | 281 | 8.0 | 11.3 | 0.00 | 0.30 | 0.30 | 35 | 997.4 |
| 20260507024945 | 12 | 263 | 4.8 | 9.7 | 0.00 | 0.30 | 0.30 | 35 | 997.0 |
| 20260507024442 | 12 | 278 | 8.0 | 9.7 | 0.00 | 0.30 | 0.30 | 38 | 997.4 |
| 20260507023938 | 12 | 282 | 4.8 | 9.7 | 0.13 | 0.30 | 0.30 | 38 | 997.4 |
| 20260507023435 | 12 | 278 | 4.8 | 9.7 | 0.13 | 0.30 | 0.30 | 38 | 997.4 |
| 20260507022932 | 12 | 274 | 6.4 | 11.3 | 0.00 | 0.28 | 0.28 | 38 | 997.4 |
| 20260507022429 | 13 | 255 | 4.8 | 6.4 | 0.00 | 0.28 | 0.28 | 39 | 997.7 |
| 20260507021925 | 13 | 284 | 4.8 | 9.7 | 0.18 | 0.28 | 0.28 | 37 | 997.7 |
| 20260507021420 | 13 | 287 | 4.8 | 9.7 | 0.18 | 0.28 | 0.28 | 37 | 997.7 |
| 20260507020918 | 13 | 283 | 4.8 | 6.4 | 0.00 | 0.25 | 0.25 | 36 | 997.4 |
| 20260507020414 | 13 | 276 | 6.4 | 9.7 | 0.00 | 0.25 | 0.25 | 36 | 997.7 |
| 20260507015912 | 14 | 267 | 6.4 | 9.7 | 0.00 | 0.25 | 0.25 | 38 | 997.7 |
| 20260507015410 | 15 | 297 | 3.2 | 9.7 | 0.00 | 0.25 | 0.25 | 36 | 997.7 |
| 20260507014907 | 15 | 297 | 1.6 | 3.2 | 0.00 | 0.25 | 0.25 | 36 | 997.0 |
| 20260507014403 | 15 | 281 | 1.6 | 1.6 | 0.00 | 0.25 | 0.25 | 36 | 997.0 |
| 20260507013859 | 15 | 289 | 0.0 | 1.6 | 0.00 | 0.25 | 0.25 | 36 | 997.4 |
| 20260507013356 | 15 | 283 | 1.6 | 3.2 | 0.00 | 0.25 | 0.25 | 37 | 997.4 |
| 20260507012854 | 15 | 292 | 0.0 | 1.6 | 0.00 | 0.25 | 0.25 | 37 | 997.0 |
| 20260507012349 | 15 | 264 | 1.6 | 3.2 | 0.00 | 0.25 | 0.25 | 37 | 997.4 |
| 20260507011847 | 15 | 292 | 0.0 | 0.0 | 0.00 | 0.25 | 0.25 | 37 | 997.4 |
| 20260507011344 | 15 | 320 | 1.6 | 3.2 | 0.00 | 0.25 | 0.25 | 37 | 997.4 |
| 20260507010837 | 15 | 293 | 0.0 | 0.0 | 0.00 | 0.25 | 0.25 | 37 | 997.4 |
| 20260507010333 | 15 | 291 | 0.0 | 3.2 | 0.00 | 0.25 | 0.25 | 36 | 997.4 |
| 20260507005831 | 15 | 294 | 0.0 | 1.6 | 0.00 | 0.25 | 0.25 | 36 | 997.4 |
| 20260507005327 | 15 | 296 | 0.0 | 1.6 | 0.00 | 0.25 | 0.25 | 36 | 997.4 |
| 20260507004819 | 15 | 285 | 0.0 | 0.0 | 0.00 | 0.25 | 0.25 | 36 | 997.4 |
| 20260507004316 | 15 | 252 | 1.6 | 4.8 | 0.00 | 0.25 | 0.25 | 36 | 997.7 |
| 20260507003813 | 15 | 243 | 1.6 | 3.2 | 0.00 | 0.25 | 0.25 | 37 | 997.4 |
| 20260507003308 | 15 | 279 | 0.0 | 1.6 | 0.00 | 0.25 | 0.25 | 37 | 997.4 |
| 20260507002803 | 15 | 222 | 0.0 | 1.6 | 0.00 | 0.25 | 0.25 | 37 | 997.0 |
| 20260507002300 | 15 | 293 | 0.0 | 3.2 | 0.00 | 0.25 | 0.25 | 37 | 997.0 |
| 20260507001757 | 15 | 276 | 1.6 | 1.6 | 0.00 | 0.25 | 0.25 | 37 | 997.0 |
| 20260507001255 | 15 | 288 | 1.6 | 4.8 | 0.00 | 0.25 | 0.25 | 36 | 997.0 |
| 20260507000750 | 15 | 275 | 1.6 | 3.2 | 0.00 | 0.25 | 0.25 | 36 | 997.0 |
| 20260507000246 | 15 | 267 | 3.2 | 3.2 | 0.00 | 0.25 | 0.25 | 36 | 997.0 |
| 20260506235743 | 15 | 288 | 0.0 | 1.6 | 0.00 | 0.25 | 0.25 | 37 | 997.0 |
| 20260506235238 | 15 | 286 | 0.0 | 4.8 | 0.00 | 0.25 | 0.25 | 35 | 997.4 |
| 20260506234736 | 15 | 233 | 1.6 | 3.2 | 0.00 | 0.25 | 0.25 | 35 | 997.0 |
| 20260506234233 | 15 | 242 | 6.4 | 6.4 | 0.00 | 0.25 | 0.25 | 35 | 997.4 |
| 20260506233731 | 15 | 262 | 1.6 | 4.8 | 0.00 | 0.25 | 0.25 | 35 | 997.4 |
| 20260506233227 | 15 | 258 | 6.4 | 9.7 | 0.00 | 0.25 | 0.25 | 35 | 997.4 |
| 20260506232724 | 15 | 275 | 1.6 | 9.7 | 0.00 | 0.25 | 0.25 | 36 | 997.0 |
| 20260506232218 | 15 | 254 | 4.8 | 4.8 | 0.00 | 0.25 | 0.25 | 37 | 997.4 |
| 20260506231716 | 15 | 280 | 1.6 | 4.8 | 0.00 | 0.25 | 0.25 | 38 | 997.0 |
| 20260506231214 | 15 | 270 | 3.2 | 9.7 | 0.00 | 0.25 | 0.25 | 38 | 997.4 |
| 20260506230710 | 15 | 180 | 1.6 | 6.4 | 0.00 | 0.25 | 0.25 | 38 | 997.4 |
| 20260506230208 | 15 | 226 | 3.2 | 9.7 | 0.00 | 0.25 | 0.25 | 39 | 997.4 |
| 20260506225704 | 15 | 222 | 3.2 | 4.8 | 0.00 | 0.25 | 0.25 | 39 | 997.4 |
| 20260506225201 | 15 | 291 | 1.6 | 3.2 | 0.00 | 0.25 | 0.25 | 40 | 997.4 |